Weather History for Buffalo, WY

Change the Weather History Date:

Saturday, October 5, 2013

  Actual Average Record
Temperature  
Mean Temperature 35 °F 49 °F  
Max Temperature 47 °F 61 °F 79 °F (2006)
Min Temperature 23 °F 37 °F 20 °F (2001)
Degree Days  
Heating Degree Days 30 16  
Month to date heating degree days 119 75  
Since 1 July heating degree days 271 389  
Cooling Degree Days 0 0  
Month to date cooling degree days 0 0  
Year to date cooling degree days 709 491  
Moisture  
Dew Point 24 °F    
Average Humidity 60    
Maximum Humidity 75    
Minimum Humidity 45    
Precipitation  
Precipitation 0.00 in 0.04 in 0.50 in (2008)
Month to date precipitation 1.70 0.23  
Year to date precipitation 9.46 11.81  
Sea Level Pressure  
Sea Level Pressure 30.28 in    
Wind  
Wind Speed 6 mph (WNW)    
Max Wind Speed 25 mph    
Max Gust Speed 36 mph    
Visibility 10 miles    
Events Rain    
T = Trace of Precipitation, MM = Missing Value Source: NWS Daily Summary

Daily Weather History Graph

Daily Weather History Graph

Search for Another Location

Airport:

Trip Planner

Search our weather history database for the weather conditions in past years. The results will help you decide how hot, cold, wet, or windy it might be!

Date:

Astronomy

Oct. 05, 2013 Rise Set
Actual Time 7:09 AM MDT 6:39 PM MDT
Civil Twilight 6:40 AM MDT 7:08 PM MDT
Nautical Twilight 6:07 AM MDT 7:42 PM MDT
Astronomical Twilight 5:33 AM MDT 8:16 PM MDT
Moon 7:55 AM MDT (10/5) 6:56 PM MDT (10/5)
Length of Visible Light 12h 27m
Length of Day
11h 29m
New Moon, 1% of the Moon is Illuminated
Oct 5
New Moon
Oct 11
First Quarter
Oct 18
Full
Oct 26
Last Quarter
Nov 3
New

Hourly Weather History & Observations

Time (MDT) Temp. Windchill Dew Point Humidity Pressure Visibility Wind Dir Wind Speed Gust Speed Precip Events Conditions
12:53 AM 33.1 °F 21.2 °F 23.0 °F 66% 30.34 in 10.0 mi NNW 20.7 mph 26.5 mph N/A   Overcast
1:53 AM 34.0 °F 21.8 °F 23.0 °F 64% 30.33 in 10.0 mi North 23.0 mph 35.7 mph N/A   Partly Cloudy
2:53 AM 33.1 °F 20.9 °F 23.0 °F 66% 30.34 in 10.0 mi North 21.9 mph - N/A   Clear
3:53 AM 30.0 °F 22.4 °F 23.0 °F 75% 30.33 in 10.0 mi NW 8.1 mph 17.3 mph N/A   Clear
4:53 AM 30.9 °F 21.7 °F 23.0 °F 72% 30.33 in 10.0 mi NW 11.5 mph - N/A   Clear
5:53 AM 28.0 °F 24.2 °F 19.0 °F 69% 30.33 in 10.0 mi SW 3.5 mph - N/A   Clear
6:53 AM 25.0 °F - 16.0 °F 69% 30.35 in 10.0 mi Calm Calm - N/A   Clear
7:53 AM 28.9 °F - 19.0 °F 67% 30.32 in 10.0 mi Calm Calm - N/A   Clear
8:53 AM 27.0 °F 23.0 °F 19.0 °F 72% 30.32 in 10.0 mi Variable 3.5 mph - N/A   Clear
9:53 AM 32.0 °F - 19.9 °F 61% 30.30 in 10.0 mi Calm Calm - N/A   Clear
10:53 AM 34.0 °F - 23.0 °F 64% 30.28 in 10.0 mi Calm Calm - N/A   Clear
11:53 AM 37.9 °F 30.0 °F 24.1 °F 57% 30.27 in 10.0 mi North 12.7 mph 24.2 mph 0.00 in Rain Light Rain
12:53 PM 39.9 °F 35.1 °F 25.0 °F 55% 30.26 in 10.0 mi NW 6.9 mph - N/A   Clear
1:53 PM 42.1 °F 40.2 °F 25.0 °F 51% 30.24 in 10.0 mi Variable 3.5 mph - N/A   Clear
2:53 PM 44.1 °F 40.1 °F 25.0 °F 47% 30.22 in 10.0 mi WNW 6.9 mph - N/A   Clear
3:53 PM 44.1 °F 41.5 °F 25.0 °F 47% 30.23 in 10.0 mi NNW 4.6 mph - N/A   Clear
4:53 PM 45.0 °F 41.8 °F 27.0 °F 49% 30.24 in 10.0 mi North 5.8 mph - N/A   Clear
5:53 PM 44.1 °F 42.5 °F 26.1 °F 49% 30.25 in 10.0 mi Variable 3.5 mph - N/A   Clear
6:53 PM 41.0 °F - 27.0 °F 57% 30.27 in 10.0 mi Calm Calm - N/A   Clear
7:53 PM 37.9 °F 34.4 °F 27.0 °F 65% 30.27 in 10.0 mi SW 4.6 mph - N/A   Clear
8:53 PM 39.0 °F 36.8 °F 27.0 °F 62% 30.29 in 10.0 mi SW 3.5 mph - N/A   Clear
9:53 PM 41.0 °F 38.0 °F 26.1 °F 55% 30.27 in 10.0 mi SW 4.6 mph - N/A   Clear
10:53 PM 42.1 °F 39.2 °F 28.0 °F 58% 30.24 in 10.0 mi SSW 4.6 mph - N/A   Clear
11:53 PM 46.9 °F - 28.9 °F 50% 30.20 in 10.0 mi NW 3.5 mph - N/A   Clear